Regional Weather Roundup
Issued by NWS

Home | Current Version | Previous Version | Graphics & Text | Print | Product List | Glossary On
Versions: 1 2 3 4 5 6 7 8 9 10 11 12 13 14 15 16 17 18 19 20 21 22 23 24 25 26 27 28 29 30 31 32 33 34 35 36 37 38 39 40 41 42 43 44 45 46 47 48 49 50
000
ASUS43 KMKX 192100
RWRWI

WISCONSIN REGIONAL WEATHER ROUNDUP
NATIONAL WEATHER SERVICE MILWAUKEE/SULLIVAN WI
400 PM CDT SUN APR 19 2015

NOTE: "FAIR" INDICATES FEW OR NO CLOUDS BELOW 12,000 FEET WITH NO
SIGNIFICANT WEATHER AND/OR OBSTRUCTIONS TO VISIBILITY.

WIZ001-002-006>008-014>016-023>028-192200-
NORTHWEST WISCONSIN

CITY           SKY/WX    TMP DP  RH WIND       PRES   REMARKS
SUPERIOR ARPT  CLOUDY    36  36  99 NE6       29.62F FOG     WCI  31
ASHLAND        CLOUDY    50  42  74 N8        29.58F
HAYWARD        CLOUDY    56  42  59 S7        29.58F
SIREN          CLOUDY    56  49  75 SW5       29.57F
CUMBERLAND     CLOUDY    54  45  71 CALM      29.58F
RICE LAKE      CLOUDY    57  43  58 SE9       29.59F
CHETEK         CLOUDY    58  44  61 E5G21     29.59F
LADYSMITH      DRIZZLE   52  46  81 S6        29.63F
EAU CLAIRE     LGT RAIN  54  44  69 CALM      29.57F
MENOMONIE      PTSUNNY   61  46  58 E12       29.58F
NEW RICHMOND   CLOUDY    58  56  92 SW6       29.57F
OSCEOLA        CLOUDY    55  50  85 W10G16    29.61S
$$

WIZ003>005-009-010-017-018-192200-
NORTH CENTRAL WISCONSIN

CITY           SKY/WX    TMP DP  RH WIND       PRES   REMARKS
MANITOWISH WTR CLOUDY    56  39  53 SE5       29.61F
ARBOR VITAE    CLOUDY    59  37  42 S9        29.61F
WOODRUFF       CLOUDY    59  37  42 S9        29.61F
RHINELANDER    CLOUDY    61  35  37 S10       29.62F
EAGLE RIVER    PTSUNNY   60  32  34 S9        29.63F
LAND O LAKES   CLOUDY    61  33  34 S7        29.63F
PHILLIPS       CLOUDY    51  46  82 CALM      29.61F
TOMAHAWK       CLOUDY    62  37  39 CALM      29.62F
MEDFORD        CLOUDY    61  41  46 S7        29.60F
MERRILL        CLOUDY    63  38  39 SE9       29.61F
$$

WIZ029-030-035-036-043>047-192200-
CENTRAL WISCONSIN

CITY           SKY/WX    TMP DP  RH WIND       PRES   REMARKS
WAUSAU         CLOUDY    65  37  35 SE16      29.58F
MOSINEE        PTSUNNY   64  36  34 SE9       29.61F
MARSHFIELD     CLOUDY    68  39  34 SE10      29.58F
STEVENS POINT  CLOUDY    64  37  36 SE10G20   29.61F
WAUPACA        PTSUNNY   70  33  25 E14       29.62F
WAUTOMA        NOT AVBL
WISC RAPIDS    CLOUDY    72  36  26 SE10      29.58F
CAMP DOUGLAS   NOT AVBL
$$

WIZ011>013-019>022-031-037>040-048>050-192200-
NORTHEAST WISCONSIN

CITY           SKY/WX    TMP DP  RH WIND       PRES   REMARKS
ANTIGO         PTSUNNY   61  36  40 SE16G22   29.64F
SHAWANO        PTSUNNY   66  34  30 E13G18    29.66F
OCONTO         PTSUNNY   58  33  37 NE9       29.68F
STURGEON BAY   PTSUNNY   57  30  35 NE6       29.70F
GREEN BAY      PTSUNNY   60  39  45 NE16      29.65F
MANITOWOC      NOT AVBL
APPLETON       PTSUNNY   66  34  30 SE14      29.63F
CLINTONVILLE   PTSUNNY   66  32  28 SE13      29.64F
OSHKOSH        PTSUNNY   68  37  32 E12       29.60F
$$

WIZ032>034-041-042-053>061-192200-
SOUTHWEST WISCONSIN

CITY           SKY/WX    TMP DP  RH WIND       PRES   REMARKS
LA CROSSE      LGT RAIN  55  48  77 NW5       29.56F
SPARTA         CLOUDY    66  40  38 CALM      29.58F
VIROQUA        CLOUDY    65  43  44 CALM      29.57F
BOSCOBEL       PTSUNNY   77  43  29 N9        29.51F
PRAIRIE DU CHI PTSUNNY   68  42  38 NW9       29.53F
PLATTEVILLE    PTSUNNY   74  44  33 E10       29.52F
$$

WIZ056-057-062-063-064-067-068-192200-
SOUTH CENTRAL WISCONSIN

CITY           SKY/WX    TMP DP  RH WIND       PRES   REMARKS
REEDSBURG      PTSUNNY   71  43  36 CALM      29.54F
BARABOO/DELLS  PTSUNNY   73  39  29 E8        29.55F
LONE ROCK      NOT AVBL
MINERAL POINT  PTSUNNY   73  37  27 E5        29.53F
MADISON        CLOUDY    71  40  32 E15       29.54F
MIDDLETON      PTSUNNY   74  36  24 E12G17    29.55F
WATERTOWN      FAIR      66  37  34 E15G22    29.58F
MONROE         PTSUNNY   72  43  35 SE7G18    29.53F
JANESVILLE     CLOUDY    72  36  26 SE16G23   29.54F
$$

WIZ051-052-058>065-066-070>072-192200-
SOUTHEAST WISCONSIN

CITY           SKY/WX    TMP DP  RH WIND       PRES   REMARKS
MILWAUKEE      CLOUDY    50  33  52 NE9       29.61F
WAUKESHA       NOT AVBL
MILWAUKEE/TIMM SUNNY     59  28  31 E8        29.63F
RACINE         CLOUDY    48  34  58 N10       29.61F
BURLINGTON     CLOUDY    63  33  33 E10G16    29.59F
KENOSHA        CLOUDY    58  35  42 NE12      29.59F
FOND DU LAC    MOSUNNY   68  36  30 SE13      29.60F
SHEBOYGAN      MOSUNNY   56  36  47 NE12      29.63F
WEST BEND      MOSUNNY   61  30  31 SE12      29.63F
JUNEAU         MOSUNNY   66  37  34 E17       29.60F
$$

LSZ147-162-192200-
LAKE SUPERIOR

STATION/POSITION TIME  TEMP    WIND        PRES    WAVE
                       AIR SEA DIR/SP/G            HT/PER
                 (UTC) (F)     (DEG/KT/KT) (MB)    (FT/S)
DEVILS ISLAND    2000   36      60/ 14/ 15 1004.1F
PORT WING        2000   38      30/ 15/ 17 1003.0F
SAXON HARBOR     2040   55     190/  6/ 13 1001.7F
$$

LMZ867-665-643>646-192200-
LAKE MICHIGAN

STATION/POSITION TIME  TEMP    WIND        PRES    WAVE
                       AIR SEA DIR/SP/G            HT/PER
                 (UTC) (F)     (DEG/KT/KT) (MB)    (FT/S)
CHAMBERS ISLAND  2000   40     360/  8/  9 1007.5F
NORTHPORT PIER   2000   41      70/ 14/ 17 1007.1F
KEWAUNEE LAKESHO 2000   44      30/ 12/ 16 1005.3F
SHEBOYGAN LAKESH 2000   42      20/ 11/ 13 1005.7F
PORT WASHINGTON  2040   49      50/  7/  8 1004.4F
MILWAUKEE LAKESH 2000   49      20/  8/ 10   N/A
KENOSHA   LAKESH 2000   46      10/ 11/ 14 1003.4F
$$

TC  - TEMPERATURE IN CELSIUS
VSB - VISIBILITY IN STATUTE MILES
WCI - WIND CHILL INDEX
HX  - HEAT INDEX



USA.gov is the U.S. government's official web portal to all federal, state and local government web resources and services.